Content
SEND FEEDBACK

Daily
Averages
Monthly
Summary
United States of America

MODEL, COLORADO


Home > North America > United States > Colorado
Elevation: 5105 feet     Latitude: 37 38N     Longitude: 104 01W

WEATHER
 
SELECT A DAY
Number of Records: 263,152;   Date Range: 1/1/95 - 9/28/14
 
SHARE

PRINT THIS DATA

[ ← Previous Day ]
WEATHER ALMANAC - JANUARY 31, 2013
[ Next Day → ]
[ °C ]   °F
Weather ElementAverageHighLow
Temperature37 °F50 °F (12:54 pm)24.1 °F (1:54 am)
Dewpoint13 °F17.1 °F (12:54 pm)9 °F (5:54 am)
Humidity39.2 %57 % (1:54 am)24 % (2:54 pm)
Barometer30.06 in30.15 in (7:54 pm)29.97 in (1:54 am)
Wind Speed7.6 mph17.3 mph (11:54 am)
Wind Gust19.6 mph (12:54 pm)
Weather ElementAverage
Visibility10 mi
Wind DirectionSSW (194.2 °)

Weather ElementTotal
Precipitation---
Heating Degree Days28 (Base 65)
Averaged from 19 records on January 31, 2013
WEATHER CONDITIONS BREAKOUT
WIND DIRECTION BREAKOUT
WEATHER BY HOUR - JANUARY 31, 2013
[ °C ]   °F
Local TimeTemperatureDewpointHumidityBarometerVisibilityWind DirectionWind SpeedGust SpeedPrecipitationEventsConditions
1:54 AM24.1 °F10.9 °F57 %29.97 in10.0 miWest (270°)12.7 mphClear
2:54 AM26.1 °F10.0 °F51 %29.97 in10.0 miWSW (240°)11.5 mphClear
3:54 AM24.1 °F10.0 °F55 %29.99 in10.0 miWSW (250°)11.5 mphClear
4:54 AM24.1 °F10.0 °F55 %30.01 in10.0 miWSW (250°)9.2 mphClear
5:54 AM25.0 °F9.0 °F51 %30.03 in10.0 miWNW (290°)8.1 mphClear
6:54 AM28.9 °F9.0 °F43 %30.09 in10.0 miCalmClear
7:54 AM30.0 °F10.9 °F45 %30.11 in10.0 miWSW (240°)5.8 mphClear
8:54 AM39.0 °F12.9 °F34 %30.08 in10.0 miWNW (290°)4.6 mphClear
9:54 AM43.0 °F14.0 °F31 %30.09 in10.0 miCalmClear
10:54 AM46.0 °F16.0 °F30 %30.10 in10.0 miNorth (350°)12.7 mphClear
11:54 AM48.0 °F15.1 °F27 %30.08 in10.0 miNNW (340°)17.3 mphClear
12:54 PM50.0 °F17.1 °F27 %30.06 in10.0 miNorth (350°)11.5 mph19.6 mphClear
1:54 PM50.0 °F17.1 °F27 %30.07 in10.0 miNorth (10°)11.5 mphClear
2:54 PM50.0 °F14.0 °F24 %30.07 in10.0 miESE (120°)4.6 mphClear
3:54 PM48.9 °F16.0 °F27 %30.07 in10.0 miESE (110°)5.8 mphClear
6:54 PM42.1 °F14.0 °F32 %30.11 in10.0 miCalmClear
7:54 PM32.0 °F17.1 °F54 %30.15 in10.0 miNW (310°)8.1 mphClear
8:54 PM36.0 °F12.0 °F37 %30.08 in10.0 miWest (270°)4.6 mphClear
9:54 PM36.0 °F12.0 °F37 %30.08 in10.0 miVariable5.8 mphClear
Hourly data recorded from KTAD, located miles away from Model, Colorado







STORIES FROM OUR PARTNERS